Willimantic, CT

3:30 AM EDT on March 26, 2017 (GMT -0400)
Windham

Weather History for KIJD - October, 2013

Change the Weather History Date:

Wednesday, October 9, 2013

  Actual Average Record
Temperature  
Mean Temperature 52 °F -  
Max Temperature 64 °F 64 °F 82 °F (1990)
Min Temperature 41 °F 37 °F 22 °F (1953)
Degree Days  
Heating Degree Days 12    
Growing Degree Days 2 (Base 50)    
Moisture  
Dew Point 42 °F    
Average Humidity 71    
Maximum Humidity 93    
Minimum Humidity 40    
Precipitation  
Precipitation 0.00 in - - ()
Sea Level Pressure  
Sea Level Pressure 30.39 in    
Wind  
Wind Speed 4 mph (NE)    
Max Wind Speed 15 mph    
Max Gust Speed 18 mph    
Visibility 10 miles    
Events      
Averages and records for this station are not official NWS values.
T = Trace of Precipitation, MM = Missing Value Source: NWS Daily Summary

Daily Weather History Graph

Daily Weather History Graph

Search for Another Location

Airport or City:

Trip Planner

Search our weather history database for the weather conditions in past years. The results will help you decide how hot, cold, wet, or windy it might be!

Date:

Astronomy

Oct. 09, 2013 Rise Set
Actual Time 6:54 AM EDT 6:16 PM EDT
Civil Twilight 6:26 AM EDT 6:44 PM EDT
Nautical Twilight 5:54 AM EDT 7:16 PM EDT
Astronomical Twilight 5:22 AM EDT 7:48 PM EDT
Moon 11:50 AM EDT (10/9) 9:44 PM EDT (10/9)
Length of Visible Light 12h 17m
Length of Day
11h 22m
Waxing Crescent, 25% of the Moon is Illuminated
Oct 9
Waxing Crescent
Oct 11
First Quarter
Oct 18
Full
Oct 26
Last Quarter
Nov 3
New

Hourly Weather History & Observations

Time (EDT) Temp. Windchill Dew Point Humidity Pressure Visibility Wind Dir Wind Speed Gust Speed Precip Events Conditions
12:52 AM 45.0 °F - 42.1 °F 90% 30.38 in 10.0 mi Calm Calm - N/A   Clear
1:52 AM 43.0 °F - 41.0 °F 93% 30.38 in 10.0 mi Calm Calm - N/A   Clear
2:52 AM 43.0 °F 40.3 °F 39.9 °F 89% 30.39 in 10.0 mi NNE 4.6 mph - N/A   Clear
3:52 AM 43.0 °F 41.3 °F 39.9 °F 89% 30.38 in 10.0 mi NE 3.5 mph - N/A   Clear
4:52 AM 43.0 °F 41.3 °F 39.9 °F 89% 30.39 in 10.0 mi NNE 3.5 mph - N/A   Clear
5:52 AM 41.0 °F - 37.9 °F 89% 30.40 in 10.0 mi Calm Calm - N/A   Clear
6:52 AM 42.1 °F 40.2 °F 39.0 °F 89% 30.40 in 10.0 mi NNW 3.5 mph - N/A   Clear
7:52 AM 43.0 °F - 39.9 °F 89% 30.43 in 10.0 mi Calm Calm - N/A   Clear
8:52 AM 50.0 °F - 44.1 °F 80% 30.45 in 10.0 mi Calm Calm - N/A   Clear
9:52 AM 55.9 °F - 43.0 °F 62% 30.45 in 10.0 mi NE 12.7 mph 18.4 mph N/A   Clear
10:52 AM 59.0 °F - 42.1 °F 53% 30.44 in 10.0 mi NNE 15.0 mph - N/A   Clear
11:52 AM 61.0 °F - 41.0 °F 48% 30.43 in 10.0 mi NE 15.0 mph - N/A   Clear
12:52 PM 63.0 °F - 41.0 °F 45% 30.41 in 10.0 mi NE 10.4 mph - N/A   Clear
1:52 PM 64.0 °F - 43.0 °F 46% 30.39 in 10.0 mi NE 9.2 mph - N/A   Clear
2:52 PM 64.0 °F - 39.0 °F 40% 30.39 in 10.0 mi East 9.2 mph 17.3 mph N/A   Clear
3:52 PM 62.1 °F - 39.9 °F 44% 30.38 in 10.0 mi NE 10.4 mph - N/A   Clear
4:52 PM 61.0 °F - 41.0 °F 48% 30.37 in 10.0 mi NNE 11.5 mph - N/A   Clear
5:52 PM 57.9 °F - 42.1 °F 56% 30.38 in 10.0 mi NE 5.8 mph - N/A   Clear
6:52 PM 55.0 °F - 43.0 °F 64% 30.37 in 10.0 mi NE 4.6 mph - N/A   Clear
7:52 PM 53.1 °F - 43.0 °F 69% 30.37 in 10.0 mi NE 4.6 mph - N/A   Clear
8:52 PM 52.0 °F - 43.0 °F 71% 30.37 in 10.0 mi Calm Calm - N/A   Clear
9:52 PM 50.0 °F - 44.1 °F 80% 30.38 in 10.0 mi North 3.5 mph - N/A   Clear
10:52 PM 48.9 °F - 44.1 °F 83% 30.37 in 10.0 mi NNE 4.6 mph - N/A   Clear
11:52 PM 46.9 °F - 44.1 °F 90% 30.36 in 10.0 mi North 4.6 mph - N/A   Clear